Location: Tel Aviv
(32.0670°N, 34.7670°E)
Time: 08:44:52
(UTC+02:00)

Vanguard 1 Rocket - Visible Passes

Search period start: 07 December 2023 00:00
Search period end: 17 December 2023 00:00
Orbit: 655 x 4218 km, 34.3° (Epoch: 06 December)

Date Brightness Start Highest point End Pass type
(mag) Time Alt. Az. Time Alt. Az. Time Alt. Az.
07 Dec 10.7 02:09:30 42° S 02:17:32 51° SSE 02:35:06 10° ENE visible
07 Dec 9.9 04:26:54 15° WSW 04:48:48 85° SSE 05:02:03 10° ENE visible
08 Dec 11.0 01:03:18 38° SE 01:03:18 38° SE 01:21:14 10° E visible
08 Dec 10.2 03:20:40 36° SW 03:34:09 73° SSE 03:50:05 10° ENE visible
08 Dec 9.6 05:43:06 10° W 06:04:59 83° N 06:15:58 10° E visible
08 Dec 11.5 23:56:47 21° ESE 23:56:47 21° ESE 00:05:18 10° E visible
09 Dec 10.5 02:14:07 54° S 02:19:05 60° SSE 02:37:29 10° ENE visible
09 Dec 9.9 04:31:27 20° WSW 04:50:48 90° N 05:04:22 10° ENE visible
09 Dec11.922:50:02E22:50:02E22:15:50Svisible
10 Dec 10.9 01:07:21 44° SE 01:07:21 44° SE 01:23:53 10° ENE visible
10 Dec 10.2 03:24:40 44° SW 03:35:56 80° SSE 03:52:21 10° ENE visible
10 Dec 9.7 05:45:00 10° W 06:07:11 82° N 06:18:21 10° E visible
11 Dec 11.4 00:00:23 24° E 00:00:23 24° E 00:08:41 10° E visible
11 Dec 10.4 02:17:41 65° S 02:20:38 68° SSE 02:39:44 10° ENE visible
11 Dec 9.9 04:34:59 24° W 04:52:50 86° N 05:06:42 10° E visible
11 Dec11.822:53:16E22:53:16E22:15:55Svisible
12 Dec 10.8 01:10:33 49° ESE 01:10:33 49° ESE 01:26:16 10° ENE visible
12 Dec 10.1 03:27:50 49° WSW 03:37:46 86° SSE 03:54:35 10° ENE visible
12 Dec 9.7 05:46:54 10° W 06:09:23 83° N 06:20:46 10° E visible
13 Dec 11.3 00:03:18 26° E 00:03:18 26° E 00:11:30 10° ENE visible
13 Dec 10.3 02:20:34 74° S 02:22:12 75° SSE 02:41:55 10° ENE visible
13 Dec 10.0 04:37:51 26° W 04:54:55 84° N 05:09:02 10° E visible
13 Dec11.722:55:56E22:55:56E22:16:27Svisible
14 Dec 10.7 01:13:12 52° ESE 01:13:12 52° ESE 01:28:30 10° ENE visible
14 Dec 10.1 03:30:28 53° WSW 03:39:39 89° NNW 03:56:50 10° ENE visible
14 Dec 9.8 05:48:47 10° W 06:11:33 86° N 06:23:08 10° E visible
15 Dec 11.3 00:05:45 27° E 00:05:45 27° E 00:13:58 10° ENE visible
15 Dec 10.3 02:23:00 81° S 02:23:49 82° SSE 02:44:05 10° ENE visible
15 Dec 10.0 04:40:16 27° W 04:57:01 83° N 05:11:23 10° E visible
15 Dec11.622:58:13E22:58:13E22:17:19SSWvisible
16 Dec 10.7 01:15:28 54° E 01:15:28 54° E 01:30:36 10° ENE visible
16 Dec 10.2 03:32:43 54° W 03:41:35 86° N 03:59:06 10° E visible
16 Dec 9.8 05:50:36 10° WNW 06:13:38 89° SSW 06:25:28 10° ESE visible
